Year,Month,Day,Hour,Minute,Value (Times are PST for temperature in C)
2008,05,27,00,01,12.70
2008,05,27,00,02,12.70
2008,05,27,00,04,12.70
2008,05,27,00,05,12.70
2008,05,27,00,06,12.70
2008,05,27,00,07,12.70
2008,05,27,00,09,12.60
2008,05,27,00,11,12.60
2008,05,27,00,12,12.60
2008,05,27,00,13,12.60
2008,05,27,00,14,12.60
2008,05,27,00,15,12.60
2008,05,27,00,16,12.50
2008,05,27,00,17,12.60
2008,05,27,00,18,12.50
2008,05,27,00,19,12.50
2008,05,27,00,20,12.50
2008,05,27,00,21,12.50
2008,05,27,00,22,12.40
2008,05,27,00,23,12.40
2008,05,27,00,24,12.40
2008,05,27,00,26,12.40
2008,05,27,00,27,12.40
2008,05,27,00,29,12.40
2008,05,27,00,30,12.40
2008,05,27,00,32,12.30
2008,05,27,00,33,12.30
2008,05,27,00,34,12.30
2008,05,27,00,35,12.30
2008,05,27,00,36,12.30
2008,05,27,00,38,12.30
2008,05,27,00,39,12.30
2008,05,27,00,40,12.30
2008,05,27,00,41,12.30
2008,05,27,00,42,12.30
2008,05,27,00,43,12.30
2008,05,27,00,44,12.30
2008,05,27,00,46,12.30
2008,05,27,00,47,12.30
2008,05,27,00,50,12.30
2008,05,27,00,51,12.20
2008,05,27,00,53,12.20
2008,05,27,00,54,12.20
2008,05,27,00,55,12.20
2008,05,27,00,56,12.20
2008,05,27,00,57,12.20
2008,05,27,00,58,12.20
2008,05,27,00,59,12.20
2008,05,27,01,00,12.20
2008,05,27,01,02,12.20
2008,05,27,01,03,12.20
2008,05,27,01,05,12.10
2008,05,27,01,06,12.10
2008,05,27,01,07,12.10
2008,05,27,01,09,12.10
2008,05,27,01,11,12.10
2008,05,27,01,12,12.10
2008,05,27,01,13,12.10
2008,05,27,01,14,12.10
2008,05,27,01,16,12.10
2008,05,27,01,17,12.00
2008,05,27,01,18,12.00
2008,05,27,01,19,12.00
2008,05,27,01,20,12.00
2008,05,27,01,22,12.00
2008,05,27,01,23,11.90
2008,05,27,01,24,11.90
2008,05,27,01,25,11.90
2008,05,27,01,26,11.90
2008,05,27,01,27,11.90
2008,05,27,01,28,11.90
2008,05,27,01,29,11.90
2008,05,27,01,30,11.90
2008,05,27,01,32,11.90
2008,05,27,01,33,11.90
2008,05,27,01,34,11.90
2008,05,27,01,35,11.80
2008,05,27,01,36,11.80
2008,05,27,01,37,11.80
2008,05,27,01,38,11.80
2008,05,27,01,40,11.80
2008,05,27,01,41,11.80
2008,05,27,01,42,11.80
2008,05,27,01,43,11.80
2008,05,27,01,45,11.80
2008,05,27,01,47,11.80
2008,05,27,01,48,11.80
2008,05,27,01,49,11.80
2008,05,27,01,50,11.80
2008,05,27,01,51,11.80
2008,05,27,01,52,11.80
2008,05,27,01,53,11.80
2008,05,27,01,54,11.80
2008,05,27,01,55,11.80
2008,05,27,01,56,11.80
2008,05,27,01,57,11.80
2008,05,27,01,58,11.80
2008,05,27,01,59,11.80
2008,05,27,02,00,11.80
2008,05,27,02,01,11.80
2008,05,27,02,02,11.80
2008,05,27,02,03,11.80
2008,05,27,02,04,11.80
2008,05,27,02,05,11.80
2008,05,27,02,06,11.80
2008,05,27,02,07,11.80
2008,05,27,02,08,11.80
2008,05,27,02,10,11.80
2008,05,27,02,11,11.80
2008,05,27,02,12,11.80
2008,05,27,02,13,11.80
2008,05,27,02,14,11.80
2008,05,27,02,15,11.80
2008,05,27,02,16,11.80
2008,05,27,02,18,11.80
2008,05,27,02,19,11.80
2008,05,27,02,20,11.80
2008,05,27,02,21,11.80
2008,05,27,02,22,11.80
2008,05,27,02,23,11.80
2008,05,27,02,24,11.80
2008,05,27,02,25,11.80
2008,05,27,02,26,11.80
2008,05,27,02,27,11.80
2008,05,27,02,28,11.80
2008,05,27,02,29,11.80
2008,05,27,02,30,11.70
2008,05,27,02,31,11.70
2008,05,27,02,32,11.70
2008,05,27,02,33,11.70
2008,05,27,02,34,11.70
2008,05,27,02,35,11.70
2008,05,27,02,36,11.70
2008,05,27,02,37,11.70
2008,05,27,02,39,11.70
2008,05,27,02,40,11.70
2008,05,27,02,41,11.70
2008,05,27,02,42,11.60
2008,05,27,02,43,11.60
2008,05,27,02,44,11.60
2008,05,27,02,45,11.60
2008,05,27,02,46,11.60
2008,05,27,02,47,11.60
2008,05,27,02,48,11.60
2008,05,27,02,49,11.60
2008,05,27,02,50,11.60
2008,05,27,02,51,11.60
2008,05,27,02,52,11.60
2008,05,27,02,53,11.60
2008,05,27,02,54,11.60
2008,05,27,02,55,11.60
2008,05,27,02,56,11.60
2008,05,27,02,57,11.60
2008,05,27,02,58,11.60
2008,05,27,02,59,11.60
2008,05,27,03,00,11.50
2008,05,27,03,01,11.60
2008,05,27,03,02,11.60
2008,05,27,03,03,11.60
2008,05,27,03,04,11.60
2008,05,27,03,05,11.60
2008,05,27,03,06,11.60
2008,05,27,03,07,11.60
2008,05,27,03,08,11.60
2008,05,27,03,09,11.60
2008,05,27,03,10,11.60
2008,05,27,03,11,11.60
2008,05,27,03,12,11.60
2008,05,27,03,13,11.50
2008,05,27,03,14,11.50
2008,05,27,03,15,11.50
2008,05,27,03,16,11.50
2008,05,27,03,17,11.50
2008,05,27,03,18,11.50
2008,05,27,03,19,11.50
2008,05,27,03,20,11.50
2008,05,27,03,21,11.50
2008,05,27,03,22,11.50
2008,05,27,03,23,11.50
2008,05,27,03,24,11.50
2008,05,27,03,25,11.50
2008,05,27,03,26,11.50
2008,05,27,03,27,11.40
2008,05,27,03,28,11.40
2008,05,27,03,29,11.40
2008,05,27,03,30,11.40
2008,05,27,03,31,11.40
2008,05,27,03,33,11.40
2008,05,27,03,34,11.40
2008,05,27,03,35,11.40
2008,05,27,03,36,11.40
2008,05,27,03,37,11.40
2008,05,27,03,38,11.40
2008,05,27,03,39,11.40
2008,05,27,03,40,11.40
2008,05,27,03,41,11.40
2008,05,27,03,43,11.40
2008,05,27,03,44,11.40
2008,05,27,03,45,11.40
2008,05,27,03,46,11.40
2008,05,27,03,47,11.40
2008,05,27,03,48,11.40
2008,05,27,03,49,11.40
2008,05,27,03,50,11.40
2008,05,27,03,51,11.40
2008,05,27,03,52,11.40
2008,05,27,03,53,11.40
2008,05,27,03,54,11.40
2008,05,27,03,55,11.40
2008,05,27,03,56,11.40
2008,05,27,03,57,11.40
2008,05,27,03,58,11.40
2008,05,27,03,59,11.40
2008,05,27,04,00,11.40
2008,05,27,04,01,11.40
2008,05,27,04,02,11.40
2008,05,27,04,03,11.40
2008,05,27,04,04,11.40
2008,05,27,04,05,11.40
2008,05,27,04,06,11.40
2008,05,27,04,07,11.40
2008,05,27,04,08,11.40
2008,05,27,04,09,11.40
2008,05,27,04,10,11.40
2008,05,27,04,11,11.30
2008,05,27,04,12,11.30
2008,05,27,04,13,11.30
2008,05,27,04,15,11.30
2008,05,27,04,17,11.30
2008,05,27,04,19,11.30
2008,05,27,04,20,11.30
2008,05,27,04,21,11.30
2008,05,27,04,22,11.30
2008,05,27,04,23,11.30
2008,05,27,04,24,11.30
2008,05,27,04,25,11.30
2008,05,27,04,26,11.30
2008,05,27,04,27,11.30
2008,05,27,04,28,11.30
2008,05,27,04,29,11.30
2008,05,27,04,30,11.30
2008,05,27,04,31,11.30
2008,05,27,04,32,11.30
2008,05,27,04,33,11.30
2008,05,27,04,34,11.30
2008,05,27,04,35,11.30
2008,05,27,04,36,11.30
2008,05,27,04,37,11.30
2008,05,27,04,38,11.30
2008,05,27,04,39,11.30
2008,05,27,04,40,11.30
2008,05,27,04,41,11.30
2008,05,27,04,42,11.30
2008,05,27,04,43,11.20
2008,05,27,04,44,11.30
2008,05,27,04,45,11.20
2008,05,27,04,46,11.20
2008,05,27,04,47,11.20
2008,05,27,04,48,11.20
2008,05,27,04,49,11.20
2008,05,27,04,50,11.20
2008,05,27,04,51,11.20
2008,05,27,04,52,11.20
2008,05,27,04,53,11.20
2008,05,27,04,54,11.20
2008,05,27,04,55,11.20
2008,05,27,04,56,11.20
2008,05,27,04,57,11.20
2008,05,27,04,58,11.20
2008,05,27,04,59,11.20
2008,05,27,05,00,11.20
2008,05,27,05,01,11.20
2008,05,27,05,02,11.20
2008,05,27,05,03,11.20
2008,05,27,05,04,11.20
2008,05,27,05,05,11.20
2008,05,27,05,06,11.20
2008,05,27,05,07,11.10
2008,05,27,05,08,11.10
2008,05,27,05,09,11.10
2008,05,27,05,10,11.10
2008,05,27,05,11,11.10
2008,05,27,05,12,11.10
2008,05,27,05,13,11.10
2008,05,27,05,14,11.10
2008,05,27,05,15,11.10
2008,05,27,05,16,11.10
2008,05,27,05,17,11.10
2008,05,27,05,18,11.10
2008,05,27,05,19,11.10
2008,05,27,05,21,11.10
2008,05,27,05,22,11.10
2008,05,27,05,23,11.10
2008,05,27,05,24,11.10
2008,05,27,05,25,11.10
2008,05,27,05,26,11.10
2008,05,27,05,27,11.10
2008,05,27,05,28,11.10
2008,05,27,05,29,11.10
2008,05,27,05,30,11.00
2008,05,27,05,31,11.10
2008,05,27,05,32,11.00
2008,05,27,05,34,11.00
2008,05,27,05,35,11.00
2008,05,27,05,36,11.00
2008,05,27,05,37,11.00
2008,05,27,05,38,11.00
2008,05,27,05,39,11.00
2008,05,27,05,40,10.90
2008,05,27,05,41,10.90
2008,05,27,05,42,10.90
2008,05,27,05,43,10.90
2008,05,27,05,44,10.90
2008,05,27,05,45,10.90
2008,05,27,05,46,10.90
2008,05,27,05,47,10.90
2008,05,27,05,48,10.90
2008,05,27,05,49,10.90
2008,05,27,05,50,10.90
2008,05,27,05,51,10.90
2008,05,27,05,52,10.80
2008,05,27,05,53,10.80
2008,05,27,05,54,10.80
2008,05,27,05,55,10.80
2008,05,27,05,56,10.80
2008,05,27,05,57,10.80
2008,05,27,05,58,10.80
2008,05,27,05,59,10.80
2008,05,27,06,00,10.80
2008,05,27,06,01,10.80
2008,05,27,06,02,10.80
2008,05,27,06,03,10.90
2008,05,27,06,04,10.90
2008,05,27,06,05,10.90
2008,05,27,06,06,10.90
2008,05,27,06,07,10.90
2008,05,27,06,08,10.90
2008,05,27,06,09,10.90
2008,05,27,06,10,10.90
2008,05,27,06,11,10.90
2008,05,27,06,12,10.90
2008,05,27,06,13,10.90
2008,05,27,06,14,11.00
2008,05,27,06,15,11.00
2008,05,27,06,16,11.00
2008,05,27,06,17,11.00
2008,05,27,06,18,11.00
2008,05,27,06,19,11.10
2008,05,27,06,20,11.10
2008,05,27,06,21,11.10
2008,05,27,06,22,11.10
2008,05,27,06,23,11.10
2008,05,27,06,24,11.10
2008,05,27,06,25,11.10
2008,05,27,06,26,11.10
2008,05,27,06,27,11.10
2008,05,27,06,28,11.10
2008,05,27,06,29,11.10
2008,05,27,06,30,11.10
2008,05,27,06,31,11.10
2008,05,27,06,32,11.20
2008,05,27,06,33,11.20
2008,05,27,06,34,11.20
2008,05,27,06,35,11.20
2008,05,27,06,36,11.20
2008,05,27,06,37,11.20
2008,05,27,06,38,11.20
2008,05,27,06,39,11.20
2008,05,27,06,40,11.20
2008,05,27,06,41,11.20
2008,05,27,06,42,11.20
2008,05,27,06,43,11.30
2008,05,27,06,44,11.30
2008,05,27,06,45,11.30
2008,05,27,06,46,11.30
2008,05,27,06,47,11.30
2008,05,27,06,48,11.30
2008,05,27,06,49,11.30
2008,05,27,06,50,11.30
2008,05,27,06,51,11.30
2008,05,27,06,52,11.30
2008,05,27,06,53,11.30
2008,05,27,06,54,11.40
2008,05,27,06,55,11.40
2008,05,27,06,56,11.40
2008,05,27,06,57,11.40
2008,05,27,06,58,11.40
2008,05,27,06,59,11.40
2008,05,27,07,00,11.40
2008,05,27,07,01,11.40
2008,05,27,07,02,11.40
2008,05,27,07,03,11.50
2008,05,27,07,04,11.50
2008,05,27,07,05,11.50
2008,05,27,07,06,11.50
2008,05,27,07,07,11.50
2008,05,27,07,08,11.60
2008,05,27,07,09,11.60
2008,05,27,07,10,11.60
2008,05,27,07,11,11.60
2008,05,27,07,12,11.60
2008,05,27,07,13,11.60
2008,05,27,07,14,11.60
2008,05,27,07,15,11.60
2008,05,27,07,16,11.60
2008,05,27,07,17,11.60
2008,05,27,07,18,11.70
2008,05,27,07,19,11.70
2008,05,27,07,20,11.70
2008,05,27,07,21,11.70
2008,05,27,07,22,11.70
2008,05,27,07,23,11.70
2008,05,27,07,24,11.70
2008,05,27,07,25,11.70
2008,05,27,07,26,11.70
2008,05,27,07,27,11.70
2008,05,27,07,28,11.70
2008,05,27,07,29,11.80
2008,05,27,07,30,11.80
2008,05,27,07,31,11.80
2008,05,27,07,32,11.80
2008,05,27,07,33,11.80
2008,05,27,07,35,11.80
2008,05,27,07,36,11.80
2008,05,27,07,37,11.80
2008,05,27,07,38,11.80
2008,05,27,07,39,11.80
2008,05,27,07,40,11.80
2008,05,27,07,41,11.90
2008,05,27,07,42,11.90
2008,05,27,07,43,11.90
2008,05,27,07,44,11.90
2008,05,27,07,45,11.90
2008,05,27,07,46,11.90
2008,05,27,07,47,11.90
2008,05,27,07,48,11.90
2008,05,27,07,49,12.00
2008,05,27,07,50,12.00
2008,05,27,07,51,12.00
2008,05,27,07,52,12.00
2008,05,27,07,53,12.00
2008,05,27,07,54,12.10
2008,05,27,07,55,12.10
2008,05,27,07,56,12.10
2008,05,27,07,57,12.10
2008,05,27,07,58,12.10
2008,05,27,07,59,12.10
2008,05,27,08,00,12.10
2008,05,27,08,01,12.10
2008,05,27,08,02,12.10
2008,05,27,08,03,12.10
2008,05,27,08,04,12.10
2008,05,27,08,05,12.10
2008,05,27,08,06,12.10
2008,05,27,08,07,12.10
2008,05,27,08,08,12.10
2008,05,27,08,09,12.10
2008,05,27,08,10,12.20
2008,05,27,08,11,12.20
2008,05,27,08,12,12.20
2008,05,27,08,13,12.20
2008,05,27,08,14,12.20
2008,05,27,08,15,12.20
2008,05,27,08,16,12.20
2008,05,27,08,17,12.20
2008,05,27,08,18,12.20
2008,05,27,08,19,12.20
2008,05,27,08,20,12.20
2008,05,27,08,21,12.20
2008,05,27,08,22,12.30
2008,05,27,08,23,12.30
2008,05,27,08,24,12.30
2008,05,27,08,25,12.30
2008,05,27,08,26,12.30
2008,05,27,08,27,12.30
2008,05,27,08,28,12.30
2008,05,27,08,29,12.30
2008,05,27,08,30,12.30
2008,05,27,08,31,12.30
2008,05,27,08,32,12.30
2008,05,27,08,33,12.30
2008,05,27,08,34,12.30
2008,05,27,08,35,12.40
2008,05,27,08,36,12.40
2008,05,27,08,37,12.40
2008,05,27,08,38,12.40
2008,05,27,08,39,12.40
2008,05,27,08,40,12.40
2008,05,27,08,41,12.50
2008,05,27,08,42,12.50
2008,05,27,08,43,12.50
2008,05,27,08,44,12.60
2008,05,27,08,45,12.60
2008,05,27,08,46,12.60
2008,05,27,08,47,12.60
2008,05,27,08,48,12.60
2008,05,27,08,49,12.60
2008,05,27,08,50,12.70
2008,05,27,08,51,12.70
2008,05,27,08,52,12.70
2008,05,27,08,53,12.70
2008,05,27,08,54,12.70
2008,05,27,08,55,12.80
2008,05,27,08,56,12.80
2008,05,27,08,57,12.80
2008,05,27,08,58,12.80
2008,05,27,08,59,12.80
2008,05,27,09,00,12.90
2008,05,27,09,01,12.90
2008,05,27,09,02,12.90
2008,05,27,09,03,12.90
2008,05,27,09,04,13.00
2008,05,27,09,05,13.00
2008,05,27,09,06,13.10
2008,05,27,09,08,13.10
2008,05,27,09,09,13.10
2008,05,27,09,10,13.10
2008,05,27,09,11,13.10
2008,05,27,09,12,13.20
2008,05,27,09,13,13.20
2008,05,27,09,14,13.20
2008,05,27,09,15,13.20
2008,05,27,09,16,13.20
2008,05,27,09,17,13.20
2008,05,27,09,18,13.20
2008,05,27,09,19,13.20
2008,05,27,09,20,13.30
2008,05,27,09,21,13.30
2008,05,27,09,22,13.30
2008,05,27,09,23,13.30
2008,05,27,09,24,13.30
2008,05,27,09,25,13.30
2008,05,27,09,26,13.30
2008,05,27,09,27,13.30
2008,05,27,09,28,13.30
2008,05,27,09,29,13.30
2008,05,27,09,30,13.30
2008,05,27,09,31,13.30
2008,05,27,09,32,13.20
2008,05,27,09,33,13.20
2008,05,27,09,34,13.30
2008,05,27,09,36,13.30
2008,05,27,09,37,13.30
2008,05,27,09,38,13.40
2008,05,27,09,39,13.40
2008,05,27,09,40,13.40
2008,05,27,09,41,13.40
2008,05,27,09,42,13.50
2008,05,27,09,43,13.50
2008,05,27,09,44,13.60
2008,05,27,09,45,13.60
2008,05,27,09,46,13.70
2008,05,27,09,47,13.70
2008,05,27,09,48,13.80
2008,05,27,09,49,13.80
2008,05,27,09,50,13.80
2008,05,27,09,51,13.80
2008,05,27,09,52,13.80
2008,05,27,09,53,13.80
2008,05,27,09,54,13.80
2008,05,27,09,55,13.80
2008,05,27,09,56,13.80
2008,05,27,09,57,13.80
2008,05,27,09,58,13.90
2008,05,27,09,59,13.90
2008,05,27,10,00,13.90
2008,05,27,10,01,13.90
2008,05,27,10,02,14.00
2008,05,27,10,03,14.10
2008,05,27,10,04,14.10
2008,05,27,10,05,14.10
2008,05,27,10,06,14.10
2008,05,27,10,07,14.10
2008,05,27,10,08,14.10
2008,05,27,10,09,14.10
2008,05,27,10,10,14.10
2008,05,27,10,11,14.20
2008,05,27,10,12,14.20
2008,05,27,10,13,14.10
2008,05,27,10,14,14.20
2008,05,27,10,15,14.20
2008,05,27,10,16,14.20
2008,05,27,10,17,14.20
2008,05,27,10,18,14.20
2008,05,27,10,19,14.20
2008,05,27,10,20,14.30
2008,05,27,10,21,14.30
2008,05,27,10,22,14.30
2008,05,27,10,23,14.30
2008,05,27,10,24,14.30
2008,05,27,10,25,14.30
2008,05,27,10,26,14.30
2008,05,27,10,27,14.30
2008,05,27,10,28,14.40
2008,05,27,10,29,14.40
2008,05,27,10,30,14.40
2008,05,27,10,31,14.40
2008,05,27,10,32,14.40
2008,05,27,10,33,14.50
2008,05,27,10,34,14.60
2008,05,27,10,35,14.60
2008,05,27,10,36,14.60
2008,05,27,10,37,14.60
2008,05,27,10,38,14.70
2008,05,27,10,39,14.70
2008,05,27,10,40,14.70
2008,05,27,10,41,14.70
2008,05,27,10,42,14.70
2008,05,27,10,43,14.80
2008,05,27,10,44,14.80
2008,05,27,10,45,14.90
2008,05,27,10,46,15.00
2008,05,27,10,47,15.00
2008,05,27,10,48,15.00
2008,05,27,10,49,15.10
2008,05,27,10,50,15.20
2008,05,27,10,51,15.30
2008,05,27,10,52,15.30
2008,05,27,10,53,15.40
2008,05,27,10,54,15.40
2008,05,27,10,55,15.50
2008,05,27,10,56,15.60
2008,05,27,10,57,15.60
2008,05,27,10,58,15.60
2008,05,27,10,59,15.60
2008,05,27,11,00,15.60
2008,05,27,11,01,15.70
2008,05,27,11,02,15.70
2008,05,27,11,03,15.70
2008,05,27,11,04,15.70
2008,05,27,11,05,15.70
2008,05,27,11,06,15.80
2008,05,27,11,07,15.80
2008,05,27,11,08,15.80
2008,05,27,11,09,15.80
2008,05,27,11,10,15.90
2008,05,27,11,11,15.90
2008,05,27,11,12,15.90
2008,05,27,11,13,15.90
2008,05,27,11,14,15.90
2008,05,27,11,15,16.00
2008,05,27,11,16,16.10
2008,05,27,11,17,16.10
2008,05,27,11,18,16.10
2008,05,27,11,19,16.20
2008,05,27,11,20,16.20
2008,05,27,11,21,16.30
2008,05,27,11,22,16.30
2008,05,27,11,23,16.30
2008,05,27,11,24,16.30
2008,05,27,11,25,16.30
2008,05,27,11,26,16.30
2008,05,27,11,27,16.30
2008,05,27,11,28,16.30
2008,05,27,11,29,16.30
2008,05,27,11,30,16.30
2008,05,27,11,31,16.30
2008,05,27,11,32,16.30
2008,05,27,11,33,16.30
2008,05,27,11,34,16.30
2008,05,27,11,35,16.30
2008,05,27,11,37,16.40
2008,05,27,11,38,16.40
2008,05,27,11,39,16.40
2008,05,27,11,40,16.50
2008,05,27,11,41,16.50
2008,05,27,11,42,16.60
2008,05,27,11,43,16.60
2008,05,27,11,44,16.60
2008,05,27,11,45,16.60
2008,05,27,11,46,16.60
2008,05,27,11,47,16.70
2008,05,27,11,48,16.70
2008,05,27,11,49,16.80
2008,05,27,11,50,16.80
2008,05,27,11,51,16.90
2008,05,27,11,52,17.10
2008,05,27,11,53,17.20
2008,05,27,11,54,17.30
2008,05,27,11,55,17.40
2008,05,27,11,56,17.60
2008,05,27,11,57,17.70
2008,05,27,11,58,17.70
2008,05,27,11,59,17.80
2008,05,27,12,00,17.90
2008,05,27,12,01,17.90
2008,05,27,12,02,18.10
2008,05,27,12,03,18.10
2008,05,27,12,04,18.20
2008,05,27,12,05,18.20
2008,05,27,12,06,18.30
2008,05,27,12,07,18.40
2008,05,27,12,08,18.50
2008,05,27,12,09,18.60
2008,05,27,12,10,18.70
2008,05,27,12,11,18.80
2008,05,27,12,12,18.80
2008,05,27,12,13,18.80
2008,05,27,12,14,18.80
2008,05,27,12,15,18.80
2008,05,27,12,16,18.80
2008,05,27,12,17,18.80
2008,05,27,12,18,18.90
2008,05,27,12,19,19.00
2008,05,27,12,20,19.20
2008,05,27,12,21,19.20
2008,05,27,12,22,19.30
2008,05,27,12,23,19.40
2008,05,27,12,24,19.50
2008,05,27,12,25,19.60
2008,05,27,12,26,19.70
2008,05,27,12,27,19.70
2008,05,27,12,28,19.80
2008,05,27,12,29,19.80
2008,05,27,12,30,19.80
2008,05,27,12,31,19.90
2008,05,27,12,32,19.90
2008,05,27,12,33,19.90
2008,05,27,12,34,20.00
2008,05,27,12,35,20.00
2008,05,27,12,36,20.10
2008,05,27,12,37,20.10
2008,05,27,12,38,20.20
2008,05,27,12,39,20.20
2008,05,27,12,40,20.20
2008,05,27,12,41,20.30
2008,05,27,12,42,20.30
2008,05,27,12,43,20.30
2008,05,27,12,44,20.30
2008,05,27,12,45,20.40
2008,05,27,12,46,20.40
2008,05,27,12,47,20.40
2008,05,27,12,48,20.40
2008,05,27,12,49,20.50
2008,05,27,12,50,20.50
2008,05,27,12,51,20.50
2008,05,27,12,52,20.50
2008,05,27,12,53,20.60
2008,05,27,12,54,20.60
2008,05,27,12,55,20.60
2008,05,27,12,56,20.60
2008,05,27,12,57,20.60
2008,05,27,12,58,20.60
2008,05,27,12,59,20.60
2008,05,27,13,00,20.50
2008,05,27,13,01,20.50
2008,05,27,13,02,20.50
2008,05,27,13,03,20.50
2008,05,27,13,04,20.50
2008,05,27,13,05,20.50
2008,05,27,13,06,20.60
2008,05,27,13,07,20.60
2008,05,27,13,08,20.60
2008,05,27,13,09,20.60
2008,05,27,13,10,20.60
2008,05,27,13,11,20.60
2008,05,27,13,12,20.60
2008,05,27,13,13,20.60
2008,05,27,13,14,20.60
2008,05,27,13,15,20.60
2008,05,27,13,16,20.60
2008,05,27,13,17,20.60
2008,05,27,13,18,20.60
2008,05,27,13,19,20.60
2008,05,27,13,20,20.60
2008,05,27,13,21,20.60
2008,05,27,13,22,20.60
2008,05,27,13,23,20.60
2008,05,27,13,24,20.60
2008,05,27,13,25,20.60
2008,05,27,13,26,20.60
2008,05,27,13,27,20.60
2008,05,27,13,28,20.60
2008,05,27,13,29,20.60
2008,05,27,13,30,20.60
2008,05,27,13,31,20.60
2008,05,27,13,32,20.60
2008,05,27,13,33,20.60
2008,05,27,13,34,20.60
2008,05,27,13,35,20.60
2008,05,27,13,36,20.60
2008,05,27,13,37,20.70
2008,05,27,13,38,20.70
2008,05,27,13,39,20.70
2008,05,27,13,40,20.70
2008,05,27,13,41,20.70
2008,05,27,13,42,20.70
2008,05,27,13,43,20.70
2008,05,27,13,44,20.70
2008,05,27,13,45,20.60
2008,05,27,13,46,20.60
2008,05,27,13,47,20.60
2008,05,27,13,48,20.50
2008,05,27,13,49,20.40
2008,05,27,13,50,20.40
2008,05,27,13,51,20.40
2008,05,27,13,52,20.40
2008,05,27,13,53,20.40
2008,05,27,13,54,20.40
2008,05,27,13,55,20.40
2008,05,27,13,56,20.40
2008,05,27,13,57,20.50
2008,05,27,13,58,20.60
2008,05,27,13,59,20.60
2008,05,27,14,00,20.60
2008,05,27,14,01,20.70
2008,05,27,14,02,20.70
2008,05,27,14,03,20.80
2008,05,27,14,04,20.80
2008,05,27,14,05,20.90
2008,05,27,14,06,20.90
2008,05,27,14,07,20.90
2008,05,27,14,08,21.00
2008,05,27,14,09,21.10
2008,05,27,14,10,21.10
2008,05,27,14,11,21.20
2008,05,27,14,12,21.20
2008,05,27,14,13,21.20
2008,05,27,14,14,21.30
2008,05,27,14,15,21.30
2008,05,27,14,16,21.40
2008,05,27,14,17,21.50
2008,05,27,14,18,21.60
2008,05,27,14,19,21.70
2008,05,27,14,20,21.80
2008,05,27,14,21,21.80
2008,05,27,14,22,21.80
2008,05,27,14,23,21.80
2008,05,27,14,24,21.80
2008,05,27,14,25,21.80
2008,05,27,14,26,21.70
2008,05,27,14,27,21.70
2008,05,27,14,28,21.80
2008,05,27,14,29,21.80
2008,05,27,14,30,21.80
2008,05,27,14,31,21.90
2008,05,27,14,32,21.90
2008,05,27,14,33,22.00
2008,05,27,14,34,22.10
2008,05,27,14,35,22.20
2008,05,27,14,36,22.20
2008,05,27,14,37,22.30
2008,05,27,14,38,22.40
2008,05,27,14,39,22.40
2008,05,27,14,40,22.50
2008,05,27,14,41,22.50
2008,05,27,14,42,22.60
2008,05,27,14,43,22.60
2008,05,27,14,44,22.60
2008,05,27,14,45,22.70
2008,05,27,14,46,22.70
2008,05,27,14,47,22.80
2008,05,27,14,48,22.80
2008,05,27,14,49,22.80
2008,05,27,14,50,22.80
2008,05,27,14,51,22.90
2008,05,27,14,52,23.00
2008,05,27,14,53,23.10
2008,05,27,14,54,23.20
2008,05,27,14,55,23.30
2008,05,27,14,56,23.40
2008,05,27,14,57,23.50
2008,05,27,14,58,23.60
2008,05,27,14,59,23.70
2008,05,27,15,00,23.80
2008,05,27,15,01,23.80
2008,05,27,15,02,23.90
2008,05,27,15,03,24.10
2008,05,27,15,04,24.10
2008,05,27,15,05,24.20
2008,05,27,15,06,24.30
2008,05,27,15,07,24.40
2008,05,27,15,08,24.50
2008,05,27,15,09,24.60
2008,05,27,15,10,24.70
2008,05,27,15,11,24.70
2008,05,27,15,12,24.80
2008,05,27,15,13,24.80
2008,05,27,15,14,24.90
2008,05,27,15,15,24.90
2008,05,27,15,16,25.00
2008,05,27,15,17,25.10
2008,05,27,15,18,25.10
2008,05,27,15,19,25.20
2008,05,27,15,20,25.10
2008,05,27,15,21,25.00
2008,05,27,15,22,24.90
2008,05,27,15,23,24.90
2008,05,27,15,24,24.90
2008,05,27,15,25,24.90
2008,05,27,15,26,24.90
2008,05,27,15,27,25.00
2008,05,27,15,28,25.10
2008,05,27,15,29,25.10
2008,05,27,15,30,25.10
2008,05,27,15,31,25.00
2008,05,27,15,32,25.10
2008,05,27,15,33,25.10
2008,05,27,15,34,25.20
2008,05,27,15,35,25.20
2008,05,27,15,36,25.30
2008,05,27,15,37,25.40
2008,05,27,15,38,25.50
2008,05,27,15,39,25.60
2008,05,27,15,40,25.70
2008,05,27,15,41,25.60
2008,05,27,15,42,25.60
2008,05,27,15,43,25.70
2008,05,27,15,44,25.70
2008,05,27,15,45,25.70
2008,05,27,15,46,25.70
2008,05,27,15,47,25.70
2008,05,27,15,48,25.80
2008,05,27,15,49,25.80
2008,05,27,15,50,25.90
2008,05,27,15,51,25.90
2008,05,27,15,52,25.90
2008,05,27,15,53,25.90
2008,05,27,15,54,26.10
2008,05,27,15,55,26.10
2008,05,27,15,56,26.10
2008,05,27,15,57,26.10
2008,05,27,15,58,26.10
2008,05,27,15,59,26.10
2008,05,27,16,00,26.10
2008,05,27,16,01,26.10
2008,05,27,16,02,26.10
2008,05,27,16,03,26.10
2008,05,27,16,04,26.20
2008,05,27,16,05,26.20
2008,05,27,16,06,26.30
2008,05,27,16,07,26.30
2008,05,27,16,08,26.40
2008,05,27,16,09,26.40
2008,05,27,16,10,26.50
2008,05,27,16,11,26.60
2008,05,27,16,12,26.60
2008,05,27,16,13,26.70
2008,05,27,16,14,26.80
2008,05,27,16,15,26.80
2008,05,27,16,16,26.90
2008,05,27,16,17,27.00
2008,05,27,16,18,27.10
2008,05,27,16,19,27.10
2008,05,27,16,20,27.20
2008,05,27,16,21,27.30
2008,05,27,16,22,27.30
2008,05,27,16,23,27.40
2008,05,27,16,24,27.40
2008,05,27,16,25,27.40
2008,05,27,16,26,27.30
2008,05,27,16,27,27.30
2008,05,27,16,28,27.20
2008,05,27,16,29,27.20
2008,05,27,16,30,27.20
2008,05,27,16,31,27.20
2008,05,27,16,32,27.20
2008,05,27,16,33,27.20
2008,05,27,16,34,27.20
2008,05,27,16,35,27.20
2008,05,27,16,36,27.20
2008,05,27,16,37,27.20
2008,05,27,16,38,27.30
2008,05,27,16,39,27.30
2008,05,27,16,40,27.30
2008,05,27,16,41,27.40
2008,05,27,16,42,27.50
2008,05,27,16,43,27.60
2008,05,27,16,44,27.70
2008,05,27,16,45,27.70
2008,05,27,16,46,27.80
2008,05,27,16,47,27.80
2008,05,27,16,48,27.80
2008,05,27,16,49,27.80
2008,05,27,16,50,27.80
2008,05,27,16,51,27.80
2008,05,27,16,52,27.80
2008,05,27,16,53,27.80
2008,05,27,16,54,27.80
2008,05,27,16,55,27.80
2008,05,27,16,56,27.80
2008,05,27,16,57,27.80
2008,05,27,16,58,27.70
2008,05,27,16,59,27.60
2008,05,27,17,00,27.30
2008,05,27,17,01,27.10
2008,05,27,17,02,26.80
2008,05,27,17,03,26.60
2008,05,27,17,04,26.40
2008,05,27,17,05,26.30
2008,05,27,17,06,26.10
2008,05,27,17,07,25.90
2008,05,27,17,08,25.80
2008,05,27,17,09,25.70
2008,05,27,17,10,25.60
2008,05,27,17,11,25.40
2008,05,27,17,12,25.40
2008,05,27,17,13,25.30
2008,05,27,17,14,25.20
2008,05,27,17,15,25.10
2008,05,27,17,16,25.10
2008,05,27,17,17,25.10
2008,05,27,17,18,25.10
2008,05,27,17,19,25.00
2008,05,27,17,20,24.90
2008,05,27,17,21,24.90
2008,05,27,17,22,24.80
2008,05,27,17,23,24.70
2008,05,27,17,24,24.70
2008,05,27,17,25,24.60
2008,05,27,17,26,24.40
2008,05,27,17,27,24.30
2008,05,27,17,28,24.20
2008,05,27,17,29,24.10
2008,05,27,17,30,23.90
2008,05,27,17,31,23.80
2008,05,27,17,32,23.70
2008,05,27,17,33,23.60
2008,05,27,17,34,23.40
2008,05,27,17,35,23.30
2008,05,27,17,36,23.20
2008,05,27,17,37,23.10
2008,05,27,17,38,23.10
2008,05,27,17,39,22.90
2008,05,27,17,40,22.80
2008,05,27,17,41,22.80
2008,05,27,17,42,22.70
2008,05,27,17,43,22.60
2008,05,27,17,44,22.60
2008,05,27,17,45,22.50
2008,05,27,17,46,22.40
2008,05,27,17,47,22.30
2008,05,27,17,48,22.20
2008,05,27,17,49,22.20
2008,05,27,17,50,22.10
2008,05,27,17,51,22.10
2008,05,27,17,52,22.10
2008,05,27,17,53,22.00
2008,05,27,17,54,21.90
2008,05,27,17,55,21.90